Weather History for McGrath, AK

Change the Weather History Date:

Saturday, October 12, 2013

  Actual Average Record
Temperature  
Mean Temperature 44 °F 28 °F  
Max Temperature 51 °F 35 °F 55 °F (1969)
Min Temperature 36 °F 22 °F -3 °F (1996)
Degree Days  
Heating Degree Days 21 37  
Month to date heating degree days 318 394  
Since 1 July heating degree days 1410 1504  
Cooling Degree Days 0    
Month to date cooling degree days 0  
Year to date cooling degree days 78 16  
Moisture  
Dew Point 35 °F    
Average Humidity 0    
Maximum Humidity 0    
Minimum Humidity 0    
Precipitation  
Precipitation 0.03 in 0.05 in 0.40 in (1970)
Month to date precipitation 0.96 0.68  
Year to date precipitation 14.34 14.54  
Snow  
Snow 0.00 in 0.30 in 3.80 in (1970)
Month to date snowfall T 2.7  
Since 1 July snowfall 0.7 4.2  
Since 1 September snowfall 0.7 4.2  
Snow Depth 0.00 in    
Sea Level Pressure  
Sea Level Pressure 29.54 in    
Wind  
Wind Speed 6 mph (ENE)    
Max Wind Speed 18 mph    
Max Gust Speed 26 mph    
Visibility 10 miles    
Events Rain    
T = Trace of Precipitation, MM = Missing Value Source: NWS Daily Summary

Daily Weather History Graph

Daily Weather History Graph

Search for Another Location

Airport:

Trip Planner

Search our weather history database for the weather conditions in past years. The results will help you decide how hot, cold, wet, or windy it might be!

Date:

Astronomy

Oct. 12, 2013 Rise Set
Actual Time 9:02 AM AKDT 7:14 PM AKDT
Civil Twilight 8:15 AM AKDT 8:00 PM AKDT
Nautical Twilight 7:22 AM AKDT 8:53 PM AKDT
Astronomical Twilight 6:28 AM AKDT 9:47 PM AKDT
Moon 5:15 PM AKDT (10/12) 12:19 AM AKDT (10/12)
Length of Visible Light 11h 44m
Length of Day
10h 11m
First Quarter, 60% of the Moon is Illuminated
Oct 12
First Quarter
Oct 18
Full
Oct 26
Last Quarter
Nov 3
New
Nov 9
First Quarter

Hourly Weather History & Observations

Time (AKDT) Temp. Windchill Dew Point Humidity Pressure Visibility Wind Dir Wind Speed Gust Speed Precip Events Conditions
12:53 AM 37.9 °F 34.4 °F 35.1 °F 89% 29.62 in 10.0 mi West 4.6 mph - N/A   Overcast
1:53 AM 37.9 °F 34.4 °F 35.1 °F 89% 29.61 in 10.0 mi West 4.6 mph - N/A   Overcast
2:53 AM 37.9 °F - 36.0 °F 93% 29.60 in 10.0 mi Calm Calm - N/A   Overcast
3:53 AM 37.9 °F - 36.0 °F 93% 29.59 in 10.0 mi Calm Calm - 0.00 in Rain Light Rain
4:53 AM 37.9 °F - 35.1 °F 89% 29.58 in 10.0 mi Calm Calm - 0.00 in Rain Light Rain
5:53 AM 37.9 °F - 35.1 °F 89% 29.57 in 10.0 mi Calm Calm - 0.00 in Rain Light Rain
6:53 AM 37.9 °F - 36.0 °F 93% 29.57 in 10.0 mi Calm Calm - 0.01 in Rain Light Rain
7:53 AM 37.0 °F - 36.0 °F 96% 29.55 in 10.0 mi Calm Calm - 0.00 in   Mostly Cloudy
8:53 AM 37.0 °F 31.6 °F 35.1 °F 93% 29.56 in 10.0 mi WSW 6.9 mph - N/A   Overcast
9:53 AM 37.0 °F - 35.1 °F 93% 29.55 in 10.0 mi Calm Calm - 0.00 in Rain Light Rain
10:53 AM 39.0 °F - 36.0 °F 89% 29.57 in 10.0 mi Calm Calm - 0.00 in   Overcast
11:53 AM 39.9 °F 37.8 °F 37.0 °F 89% 29.57 in 10.0 mi NNE 3.5 mph - 0.01 in Rain Light Rain
12:53 PM 41.0 °F 38.0 °F 37.9 °F 89% 29.57 in 10.0 mi WNW 4.6 mph - 0.01 in Rain Light Rain
1:53 PM 43.0 °F 38.8 °F 39.9 °F 89% 29.56 in 10.0 mi West 6.9 mph - 0.00 in   Mostly Cloudy
2:53 PM 48.0 °F - 37.9 °F 68% 29.53 in 10.0 mi Calm Calm - N/A   Mostly Cloudy
3:53 PM 50.0 °F - 34.0 °F 54% 29.52 in 10.0 mi East 10.4 mph 16.1 mph N/A   Mostly Cloudy
4:53 PM 50.0 °F - 34.0 °F 54% 29.50 in 10.0 mi East 13.8 mph 19.6 mph N/A   Mostly Cloudy
6:53 PM 48.9 °F - 33.1 °F 54% 29.48 in 10.0 mi East 10.4 mph - N/A   Mostly Cloudy
7:53 PM 48.9 °F - 32.0 °F 52% 29.47 in 10.0 mi East 13.8 mph - N/A   Overcast
8:53 PM 48.9 °F - 32.0 °F 52% 29.45 in 10.0 mi East 13.8 mph - N/A   Mostly Cloudy
9:53 PM 48.9 °F - 32.0 °F 52% 29.45 in 10.0 mi East 15.0 mph 23.0 mph N/A   Overcast
10:53 PM 48.9 °F - 32.0 °F 52% 29.44 in 10.0 mi East 12.7 mph - N/A   Overcast
11:53 PM 50.0 °F - 30.9 °F 48% 29.43 in 10.0 mi East 15.0 mph - N/A   Mostly Cloudy